| time (UTC) | temp F | wind direction | speed MPH | gust MPH | rain 1hr in | rain 24hr in | rain mn in | humidity % | barometer mb |
| 20260506170045 | 66 | 317 | 0.0 | 2.0 | 0.01 | 0.13 | 0.03 | 71 | 1017.2 |
| 20260506164546 | 64 | 0 | 0.0 | 5.0 | 0.00 | 0.14 | 0.02 | 71 | 1017.5 |
| 20260506163037 | 64 | 0 | 0.0 | 4.0 | 0.00 | 0.14 | 0.02 | 72 | 1017.2 |
| 20260506161545 | 63 | 34 | 0.0 | 3.0 | 0.00 | 0.14 | 0.02 | 75 | 1017.4 |
| 20260506160046 | 61 | 0 | 0.0 | 1.0 | 0.00 | 0.14 | 0.02 | 78 | 1017.3 |
| 20260506154542 | 62 | 240 | 1.0 | 4.0 | 0.00 | 0.17 | 0.02 | 77 | 1017.4 |
| 20260506153039 | 60 | 0 | 0.0 | 4.0 | 0.00 | 0.17 | 0.02 | 79 | 1017.3 |
| 20260506151558 | 59 | 202 | 0.0 | 2.0 | 0.00 | 0.17 | 0.02 | 80 | 1017.4 |
| 20260506150040 | 59 | 111 | 0.0 | 2.0 | 0.00 | 0.17 | 0.02 | 81 | 1017.5 |
| 20260506144542 | 58 | 0 | 0.0 | 3.0 | 0.00 | 0.20 | 0.02 | 82 | 1017.3 |
| 20260506143047 | 56 | 0 | 1.0 | 4.0 | 0.00 | 0.20 | 0.02 | 84 | 1017.3 |
| 20260506141541 | 55 | 101 | 1.0 | 4.0 | 0.00 | 0.20 | 0.02 | 85 | 1017.1 |
| 20260506140040 | 54 | 114 | 3.0 | 6.0 | 0.00 | 0.20 | 0.02 | 88 | 1017.1 |
| 20260506134538 | 53 | 106 | 2.0 | 6.0 | 0.00 | 0.22 | 0.02 | 91 | 1017.0 |
| 20260506133042 | 52 | 98 | 2.0 | 4.0 | 0.00 | 0.22 | 0.02 | 92 | 1017.0 |
| 20260506131541 | 51 | 79 | 1.0 | 4.0 | 0.01 | 0.22 | 0.02 | 92 | 1016.7 |
| 20260506130040 | 51 | 82 | 1.0 | 3.0 | 0.01 | 0.22 | 0.02 | 93 | 1016.4 |
| 20260506124540 | 51 | 90 | 1.0 | 3.0 | 0.01 | 0.25 | 0.02 | 93 | 1016.4 |
| 20260506123038 | 51 | 92 | 1.0 | 3.0 | 0.01 | 0.25 | 0.02 | 93 | 1016.3 |
| 20260506121543 | 51 | 106 | 1.0 | 2.0 | 0.00 | 0.24 | 0.01 | 93 | 1016.2 |
| 20260506120043 | 50 | 0 | 0.0 | 0.0 | 0.00 | 0.24 | 0.01 | 93 | 1016.2 |
| 20260506114542 | 50 | 0 | 0.0 | 0.0 | 0.00 | 0.26 | 0.01 | 92 | 1016.1 |
| 20260506113040 | 51 | 0 | 0.0 | 2.0 | 0.00 | 0.26 | 0.01 | 92 | 1016.2 |
| 20260506111539 | 52 | 106 | 0.0 | 2.0 | 0.00 | 0.26 | 0.01 | 92 | 1016.1 |
| 20260506110050 | 52 | 0 | 0.0 | 1.0 | 0.00 | 0.26 | 0.01 | 92 | 1016.0 |
| 20260506104539 | 52 | 0 | 0.0 | 2.0 | 0.00 | 0.31 | 0.01 | 92 | 1016.0 |
| 20260506103043 | 52 | 90 | 0.0 | 2.0 | 0.00 | 0.31 | 0.01 | 92 | 1015.9 |
| 20260506101551 | 52 | 0 | 0.0 | 0.0 | 0.00 | 0.31 | 0.01 | 92 | 1016.0 |
| 20260506100036 | 51 | 0 | 0.0 | 0.0 | 0.00 | 0.31 | 0.01 | 92 | 1015.9 |
| 20260506094553 | 51 | 0 | 0.0 | 0.0 | 0.00 | 0.32 | 0.01 | 92 | 1015.9 |
| 20260506093039 | 52 | 0 | 0.0 | 0.0 | 0.00 | 0.32 | 0.01 | 91 | 1015.8 |
| 20260506091539 | 52 | 0 | 0.0 | 0.0 | 0.00 | 0.32 | 0.01 | 92 | 1015.9 |
| 20260506090043 | 52 | 0 | 0.0 | 0.0 | 0.00 | 0.32 | 0.01 | 91 | 1016.0 |
| 20260506084539 | 52 | 0 | 0.0 | 0.0 | 0.01 | 0.32 | 0.01 | 91 | 1016.2 |
| 20260506083043 | 52 | 0 | 0.0 | 0.0 | 0.01 | 0.32 | 0.01 | 91 | 1016.5 |
| 20260506081540 | 52 | 0 | 0.0 | 0.0 | 0.01 | 0.32 | 0.01 | 91 | 1016.6 |
| 20260506073044 | 53 | 0 | 0.0 | 0.0 | 0.00 | 0.32 | 0.00 | 89 | 1016.8 |
| 20260506071545 | 54 | 0 | 0.0 | 0.0 | 0.00 | 0.32 | 0.00 | 88 | 1016.8 |
| 20260506061540 | 55 | 86 | 1.0 | 2.0 | 0.00 | 0.32 | 0.32 | 89 | 1016.5 |
| 20260506044539 | 55 | 86 | 1.0 | 2.0 | 0.01 | 0.32 | 0.32 | 87 | 1015.9 |
| 20260506043038 | 55 | 0 | 0.0 | 1.0 | 0.01 | 0.32 | 0.32 | 87 | 1015.8 |
| 20260506041555 | 55 | 5 | 0.0 | 2.0 | 0.01 | 0.32 | 0.32 | 86 | 1015.7 |
| 20260506040040 | 55 | 5 | 1.0 | 2.0 | 0.00 | 0.31 | 0.31 | 85 | 1015.5 |
| 20260506034542 | 56 | 5 | 0.0 | 1.0 | 0.00 | 0.31 | 0.31 | 83 | 1015.2 |
| 20260506033043 | 57 | 0 | 0.0 | 0.0 | 0.00 | 0.31 | 0.31 | 82 | 1015.0 |
| 20260506031540 | 58 | 0 | 0.0 | 1.0 | 0.00 | 0.31 | 0.31 | 79 | 1014.9 |
| 20260506030039 | 58 | 0 | 0.0 | 3.0 | 0.00 | 0.31 | 0.31 | 78 | 1014.6 |
| 20260506024540 | 59 | 0 | 0.0 | 3.0 | 0.00 | 0.31 | 0.31 | 77 | 1014.7 |
| 20260506023044 | 59 | 0 | 0.0 | 3.0 | 0.00 | 0.31 | 0.31 | 75 | 1014.4 |
| 20260506021541 | 60 | 0 | 0.0 | 4.0 | 0.01 | 0.31 | 0.31 | 74 | 1014.3 |
| 20260506020039 | 60 | 179 | 0.0 | 7.0 | 0.01 | 0.31 | 0.31 | 73 | 1014.2 |
| 20260506014545 | 61 | 233 | 2.0 | 8.0 | 0.01 | 0.31 | 0.31 | 70 | 1014.1 |
| 20260506013038 | 61 | 309 | 2.0 | 6.0 | 0.01 | 0.31 | 0.31 | 69 | 1014.0 |
| 20260506011540 | 63 | 284 | 3.0 | 6.0 | 0.00 | 0.30 | 0.30 | 68 | 1013.8 |
| 20260506010040 | 63 | 235 | 1.0 | 14.0 | 0.00 | 0.30 | 0.30 | 68 | 1013.9 |
| 20260506004543 | 64 | 248 | 1.0 | 4.0 | 0.00 | 0.30 | 0.30 | 69 | 1013.8 |
| 20260506003039 | 65 | 257 | 2.0 | 11.0 | 0.01 | 0.30 | 0.30 | 65 | 1013.9 |
| 20260506001547 | 65 | 319 | 3.0 | 11.0 | 0.01 | 0.30 | 0.30 | 66 | 1013.7 |
| 20260506000046 | 66 | 254 | 3.0 | 10.0 | 0.01 | 0.30 | 0.30 | 61 | 1013.8 |
| 20260505234548 | 65 | 294 | 5.0 | 11.0 | 0.01 | 0.30 | 0.30 | 62 | 1013.7 |
| 20260505233043 | 65 | 221 | 3.0 | 11.0 | 0.00 | 0.29 | 0.29 | 66 | 1013.7 |
| 20260505231547 | 67 | 212 | 4.0 | 10.0 | 0.01 | 0.29 | 0.29 | 62 | 1013.8 |
| 20260505230042 | 66 | 274 | 3.0 | 10.0 | 0.01 | 0.29 | 0.29 | 64 | 1013.8 |
| 20260505224542 | 68 | 301 | 2.0 | 13.0 | 0.01 | 0.29 | 0.29 | 60 | 1013.9 |
| 20260505223043 | 67 | 306 | 3.0 | 12.0 | 0.01 | 0.29 | 0.29 | 60 | 1013.9 |
| 20260505221546 | 67 | 288 | 2.0 | 12.0 | 0.00 | 0.28 | 0.28 | 59 | 1014.0 |
| 20260505220041 | 68 | 259 | 4.0 | 10.0 | 0.01 | 0.28 | 0.28 | 59 | 1014.2 |
| 20260505214554 | 66 | 206 | 5.0 | 12.0 | 0.01 | 0.28 | 0.28 | 58 | 1014.2 |
| 20260505213053 | 67 | 241 | 6.0 | 17.0 | 0.01 | 0.28 | 0.28 | 58 | 1014.3 |
| 20260505211539 | 68 | 219 | 3.0 | 10.0 | 0.02 | 0.28 | 0.28 | 60 | 1014.3 |
| 20260505210036 | 67 | 300 | 3.0 | 11.0 | 0.01 | 0.27 | 0.27 | 62 | 1014.4 |
| 20260505204538 | 66 | 238 | 5.0 | 12.0 | 0.01 | 0.27 | 0.27 | 62 | 1014.5 |
| 20260505203047 | 66 | 258 | 5.0 | 11.0 | 0.01 | 0.27 | 0.27 | 64 | 1014.5 |
| 20260505201550 | 67 | 248 | 4.0 | 12.0 | 0.01 | 0.26 | 0.26 | 65 | 1014.5 |
| 20260505200040 | 65 | 247 | 6.0 | 13.0 | 0.01 | 0.26 | 0.26 | 64 | 1014.4 |
| 20260505194541 | 66 | 273 | 3.0 | 10.0 | 0.02 | 0.26 | 0.26 | 63 | 1014.6 |
| 20260505193044 | 66 | 273 | 4.0 | 12.0 | 0.02 | 0.26 | 0.26 | 63 | 1014.8 |
| 20260505191548 | 66 | 239 | 4.0 | 11.0 | 0.01 | 0.25 | 0.25 | 63 | 1014.8 |
| 20260505190055 | 66 | 290 | 2.0 | 12.0 | 0.02 | 0.25 | 0.25 | 64 | 1014.7 |
| 20260505184549 | 65 | 288 | 2.0 | 8.0 | 0.01 | 0.24 | 0.24 | 63 | 1014.7 |
| 20260505183048 | 64 | 274 | 2.0 | 9.0 | 0.02 | 0.24 | 0.24 | 68 | 1014.7 |
| 20260505181536 | 64 | 217 | 3.0 | 8.0 | 0.02 | 0.24 | 0.24 | 70 | 1014.7 |
| 20260505180049 | 62 | 291 | 4.0 | 9.0 | 0.01 | 0.23 | 0.23 | 72 | 1014.7 |
| 20260505174543 | 63 | 0 | 3.0 | 13.0 | 0.02 | 0.23 | 0.23 | 70 | 1014.5 |
| 20260505173042 | 63 | 285 | 2.0 | 11.0 | 0.01 | 0.22 | 0.22 | 75 | 1014.4 |
| 20260505171542 | 62 | 288 | 1.0 | 7.0 | 0.02 | 0.22 | 0.22 | 80 | 1014.1 |